Flag for Germany Weather past 2 weeks in Herzogenrath, North Rhine-Westphalia, Germany

Now
70 °F

Passing clouds.


Feels Like: 70 °F
Forecast: 57 / 70 °F
Wind: 9 mph from East

Location: Geilenkirchen Airport

Current Time: Aug 27, 2014 at 7:09:57 PM

Latest Report: Aug 27, 2014 at 5:50 PM


Visibility: N/A

Pressure: 30.01 "Hg

Humidity: 57%

Dew point: 54 °F

Location of HerzogenrathLocation

Historic Weather in Herzogenrath — Graph

°F

Herzogenrath temperature yesterday

Maximum temperature yesterday: 59 °F (at 11:50 AM)
Minimum temperature yesterday: 55 °F (at 1:50 AM)
Average temperature yesterday: 57 °F

Past Weeks' High & Low Weather Summary

 TemperatureHumidityPressure
High72 °F (Aug 13, 5:50 PM)100% (Aug 25, 9:50 PM)30.04 "Hg (Aug 25, 9:50 PM)
Low50 °F (Aug 21, 7:50 AM)0% (Aug 14, 3:50 AM)29.62 "Hg (Aug 26, 3:50 AM)
Average60 °F83%29.83 "Hg
* Reported Aug 12 4:50 PM — Aug 27 4:50 PM, Herzogenrath, Weather by CustomWeather, © 2014

Note: Actual official high and low records may vary slightly from our data, if they occured in-between our weather recording intervals... More about our weather records

Advertising

Herzogenrath weather history for previous 24 hours

 ConditionsComfort  
Time TempWeatherWind HumidityBarometerVisibility
4:50 PM
Aug 27
68 °FPassing clouds.7 mph64%30.01 "HgN/A
3:50 PM68 °FPassing clouds.9 mph60%30.01 "HgN/A
2:50 PM66 °FPassing clouds.12 mph68%30.04 "HgN/A
1:50 PM66 °FPassing clouds.14 mph64%30.04 "HgN/A
12:50 PM64 °FPassing clouds.10 mph78%30.04 "HgN/A
11:50 AM61 °FScattered clouds.8 mph83%30.04 "HgN/A
10:50 AM59 °FScattered clouds.9 mph94%30.01 "Hg5 mi
9:50 AM55 °FFog.5 mph100%30.01 "Hg2 mi
8:50 AM54 °FFog.6 mph100%29.98 "Hg1 mi
7:50 AM52 °FFog.2 mph100%29.95 "Hg1 mi
6:50 AM50 °FFog.No wind100%29.95 "Hg0 mi
5:50 AM52 °FFog.2 mph100%29.92 "Hg0 mi
4:50 AM54 °FFog.2 mph100%29.92 "Hg1 mi
3:50 AM55 °FFog.5 mph100%29.89 "Hg1 mi
2:50 AM57 °FFog.5 mph94%29.86 "Hg2 mi
1:50 AM57 °FFog.5 mph94%29.86 "Hg3 mi
12:50 AM55 °FDrizzle. Mostly cloudy.5 mph100%29.83 "HgN/A
11:50 PM
Aug 26
55 °FLight rain. Overcast.5 mph100%29.83 "HgN/A
10:50 PM57 °FLight rain. Mostly cloudy.7 mph94%29.80 "HgN/A
9:50 PM57 °FPassing clouds.5 mph100%29.77 "Hg5 mi
8:50 PM57 °FLight rain. Mostly cloudy.6 mph100%29.74 "HgN/A
7:50 PM57 °FLight rain. Mostly cloudy.7 mph100%29.74 "HgN/A
Weather by CustomWeather, © 2014

See weather overviewHow to use our weather pages